TimeMST,TemperatureF,Dew PointF,Humidity,Sea Level PressureIn,VisibilityMPH,Wind Direction,Wind SpeedMPH,Gust SpeedMPH,PrecipitationIn,Events,Conditions,WindDirDegrees,DateUTC
12:03 AM,17.6,6.8,63,29.87,10.0,SW,8.1,-,N/A,,Clear,220,2012-12-30 07:03:00
12:23 AM,17.6,6.8,63,29.86,10.0,WSW,8.1,-,N/A,,Clear,240,2012-12-30 07:23:00
12:42 AM,17.6,6.8,63,29.86,10.0,SW,9.2,-,N/A,,Clear,230,2012-12-30 07:42:00
1:02 AM,17.6,6.8,63,29.86,10.0,SW,10.4,-,N/A,,Clear,230,2012-12-30 08:02:00
1:23 AM,19.4,8.6,63,29.87,10.0,SW,11.5,-,N/A,,Clear,220,2012-12-30 08:23:00
1:43 AM,19.4,8.6,63,29.87,10.0,SW,10.4,-,N/A,,Clear,220,2012-12-30 08:43:00
2:03 AM,21.2,8.6,58,29.87,10.0,SW,9.2,-,N/A,,Clear,220,2012-12-30 09:03:00
2:23 AM,21.2,10.4,63,29.86,10.0,SSW,12.7,-,N/A,,Clear,200,2012-12-30 09:23:00
2:43 AM,19.4,8.6,63,29.87,10.0,WSW,4.6,-,N/A,,Clear,240,2012-12-30 09:43:00
3:03 AM,19.4,8.6,63,29.87,10.0,SSW,9.2,-,N/A,,Clear,210,2012-12-30 10:03:00
3:23 AM,21.2,8.6,58,29.87,10.0,SW,9.2,-,N/A,,Clear,220,2012-12-30 10:23:00
3:43 AM,21.2,6.8,54,29.87,10.0,SW,9.2,-,N/A,,Clear,220,2012-12-30 10:43:00
4:03 AM,21.2,5.0,50,29.87,10.0,SSW,10.4,-,N/A,,Clear,210,2012-12-30 11:03:00
4:23 AM,23.0,3.2,43,29.88,10.0,SW,10.4,-,N/A,,Clear,220,2012-12-30 11:23:00
4:43 AM,24.8,5.0,43,29.88,10.0,SW,10.4,-,N/A,,Clear,220,2012-12-30 11:43:00
5:02 AM,24.8,5.0,43,29.89,10.0,SW,5.8,-,N/A,,Clear,220,2012-12-30 12:02:00
5:23 AM,24.8,5.0,43,29.90,10.0,SSW,6.9,-,N/A,,Clear,210,2012-12-30 12:23:00
5:43 AM,26.6,1.4,34,29.91,10.0,South,5.8,-,N/A,,Clear,190,2012-12-30 12:43:00
6:03 AM,17.6,3.2,53,29.90,10.0,South,9.2,-,N/A,,Clear,170,2012-12-30 13:03:00
6:23 AM,17.6,3.2,53,29.91,10.0,South,10.4,-,N/A,,Clear,190,2012-12-30 13:23:00
6:43 AM,14.0,3.2,62,29.90,10.0,South,9.2,-,N/A,,Clear,180,2012-12-30 13:43:00
7:02 AM,15.8,3.2,58,29.90,10.0,South,8.1,-,N/A,,Clear,180,2012-12-30 14:02:00
7:23 AM,14.0,1.4,57,29.90,10.0,South,9.2,-,N/A,,Clear,170,2012-12-30 14:23:00
7:43 AM,15.8,3.2,58,29.90,10.0,South,8.1,-,N/A,,Clear,170,2012-12-30 14:43:00
7:50 AM,15.8,1.4,53,29.90,50.0,SSE,8.1,-,N/A,,Mostly Cloudy,150,2012-12-30 14:50:00
8:03 AM,15.8,3.2,58,29.89,10.0,SSE,9.2,-,N/A,,Clear,160,2012-12-30 15:03:00
8:23 AM,14.0,3.2,62,29.88,10.0,South,6.9,-,N/A,,Clear,180,2012-12-30 15:23:00
8:43 AM,17.6,3.2,53,29.89,10.0,South,6.9,-,N/A,,Clear,180,2012-12-30 15:43:00
9:02 AM,19.4,5.0,54,29.90,10.0,South,9.2,-,N/A,,Clear,170,2012-12-30 16:02:00
9:22 AM,23.0,6.8,50,29.90,10.0,South,6.9,-,N/A,,Clear,170,2012-12-30 16:22:00
9:43 AM,23.0,8.6,54,29.91,10.0,South,8.1,-,N/A,,Clear,180,2012-12-30 16:43:00
9:47 AM,26.6,8.6,47,29.91,50.0,South,9.2,-,N/A,,Scattered Clouds,180,2012-12-30 16:47:00
10:03 AM,28.4,10.4,47,29.92,10.0,South,6.9,-,N/A,,Clear,180,2012-12-30 17:03:00
10:23 AM,30.2,12.2,47,29.92,10.0,South,4.6,-,N/A,,Clear,170,2012-12-30 17:23:00
10:43 AM,33.8,14.0,44,29.91,10.0,Calm,Calm,-,N/A,,Clear,0,2012-12-30 17:43:00
10:47 AM,35.6,6.8,30,29.91,50.0,Calm,Calm,-,N/A,,Scattered Clouds,0,2012-12-30 17:47:00
11:03 AM,35.6,8.6,33,29.91,10.0,Calm,Calm,-,N/A,,Clear,0,2012-12-30 18:03:00
11:23 AM,39.2,12.2,33,29.90,10.0,SSE,6.9,-,N/A,,Clear,160,2012-12-30 18:23:00
11:43 AM,39.2,14.0,36,29.89,10.0,SSE,15.0,-,N/A,,Clear,160,2012-12-30 18:43:00
11:47 AM,39.2,15.8,39,29.89,50.0,SSE,11.5,-,N/A,,Mostly Cloudy,150,2012-12-30 18:47:00
12:03 PM,37.4,15.8,41,29.89,10.0,SSE,13.8,-,N/A,,Clear,160,2012-12-30 19:03:00
12:21 PM,39.2,14.0,36,29.89,10.0,SSE,12.7,-,N/A,,Clear,160,2012-12-30 19:21:00
12:43 PM,41.0,14.0,33,29.87,10.0,SSE,16.1,-,N/A,,Clear,150,2012-12-30 19:43:00
12:50 PM,41.0,12.2,31,29.87,50.0,SE,12.7,-,N/A,,Mostly Cloudy,130,2012-12-30 19:50:00
1:03 PM,41.0,14.0,33,29.87,10.0,SE,17.3,-,N/A,,Clear,140,2012-12-30 20:03:00
1:23 PM,41.0,14.0,33,29.86,10.0,SE,17.3,21.9,N/A,,Clear,130,2012-12-30 20:23:00
1:43 PM,41.0,14.0,33,29.86,10.0,ESE,18.4,25.3,N/A,,Clear,120,2012-12-30 20:43:00
1:50 PM,39.2,15.8,39,29.86,50.0,ESE,16.1,-,N/A,,Mostly Cloudy,120,2012-12-30 20:50:00
2:03 PM,39.2,17.6,42,29.86,10.0,ESE,19.6,25.3,N/A,,Clear,120,2012-12-30 21:03:00
2:23 PM,37.4,19.4,48,29.86,10.0,SE,18.4,-,N/A,,Clear,130,2012-12-30 21:23:00
2:43 PM,37.4,21.2,52,29.87,10.0,ESE,12.7,-,N/A,,Clear,110,2012-12-30 21:43:00
2:50 PM,37.4,21.2,52,29.87,50.0,East,16.1,-,N/A,,Mostly Cloudy,90,2012-12-30 21:50:00
3:02 PM,35.6,21.2,56,29.87,10.0,ESE,17.3,21.9,N/A,,Clear,110,2012-12-30 22:02:00
3:23 PM,35.6,21.2,56,29.88,10.0,ESE,15.0,26.5,N/A,,Clear,110,2012-12-30 22:23:00
3:43 PM,35.6,19.4,52,29.89,10.0,SE,24.2,29.9,N/A,,Clear,130,2012-12-30 22:43:00
3:50 PM,33.8,17.6,52,29.90,50.0,ESE,20.7,-,N/A,,Mostly Cloudy,110,2012-12-30 22:50:00
4:03 PM,33.8,17.6,52,29.91,10.0,ESE,18.4,-,N/A,,Clear,120,2012-12-30 23:03:00
4:23 PM,32.0,17.6,55,29.93,10.0,ESE,15.0,-,N/A,,Mostly Cloudy,110,2012-12-30 23:23:00
4:43 PM,32.0,19.4,60,29.93,10.0,ESE,13.8,-,N/A,,Overcast,120,2012-12-30 23:43:00
4:58 PM,30.2,19.4,64,29.95,50.0,ESE,11.5,-,N/A,,Mostly Cloudy,110,2012-12-30 23:58:00
5:03 PM,32.0,19.4,60,29.94,10.0,ESE,12.7,-,N/A,,Overcast,120,2012-12-31 00:03:00
5:22 PM,32.0,19.4,60,29.96,10.0,ESE,8.1,-,N/A,,Overcast,120,2012-12-31 00:22:00
5:43 PM,30.2,19.4,64,29.96,10.0,East,4.6,-,N/A,,Scattered Clouds,100,2012-12-31 00:43:00
5:48 PM,28.4,19.4,69,29.97,20.0,Calm,Calm,-,N/A,,Mostly Cloudy,0,2012-12-31 00:48:00
6:03 PM,28.4,19.4,69,29.98,10.0,Calm,Calm,-,N/A,,Scattered Clouds,0,2012-12-31 01:03:00
6:22 PM,28.4,19.4,69,29.98,10.0,ESE,6.9,-,N/A,,Scattered Clouds,120,2012-12-31 01:22:00
6:43 PM,28.4,19.4,69,29.98,10.0,SE,4.6,-,N/A,,Mostly Cloudy,130,2012-12-31 01:43:00
6:50 PM,26.6,17.6,69,29.98,20.0,ESE,5.8,-,N/A,,Mostly Cloudy,120,2012-12-31 01:50:00
7:03 PM,28.4,17.6,64,29.98,10.0,ESE,5.8,-,N/A,,Overcast,110,2012-12-31 02:03:00
7:22 PM,28.4,17.6,64,29.98,10.0,Calm,Calm,-,N/A,,Mostly Cloudy,0,2012-12-31 02:22:00
7:44 PM,28.4,17.6,64,29.99,10.0,Calm,Calm,-,N/A,,Clear,0,2012-12-31 02:44:00
7:55 PM,26.6,15.8,64,29.99,20.0,SSE,5.8,-,N/A,,Mostly Cloudy,150,2012-12-31 02:55:00
8:04 PM,26.6,17.6,69,29.99,10.0,SE,4.6,-,N/A,,Clear,140,2012-12-31 03:04:00
8:23 PM,24.8,15.8,69,29.99,10.0,SE,3.5,-,N/A,,Clear,140,2012-12-31 03:23:00
8:43 PM,23.0,15.8,74,29.99,10.0,South,3.5,-,N/A,,Clear,170,2012-12-31 03:43:00
9:02 PM,23.0,14.0,68,29.98,10.0,Calm,Calm,-,N/A,,Clear,0,2012-12-31 04:02:00
9:23 PM,26.6,12.2,55,29.99,10.0,Calm,Calm,-,N/A,,Clear,0,2012-12-31 04:23:00
9:43 PM,26.6,12.2,55,29.99,10.0,Calm,Calm,-,N/A,,Clear,0,2012-12-31 04:43:00
10:03 PM,26.6,14.0,59,29.99,10.0,Calm,Calm,-,N/A,,Clear,0,2012-12-31 05:03:00
10:23 PM,14.0,8.6,79,29.99,10.0,Calm,Calm,-,N/A,,Clear,0,2012-12-31 05:23:00
10:43 PM,15.8,10.4,79,29.99,10.0,Calm,Calm,-,N/A,,Clear,0,2012-12-31 05:43:00
11:03 PM,14.0,8.6,79,29.99,10.0,ESE,4.6,-,N/A,,Clear,110,2012-12-31 06:03:00
11:23 PM,17.6,10.4,73,29.98,10.0,ESE,5.8,-,N/A,,Clear,120,2012-12-31 06:23:00
11:42 PM,17.6,10.4,73,29.98,10.0,ESE,5.8,-,N/A,,Clear,110,2012-12-31 06:42:00